Location: Potomac
(46.8816°N, 113.5795°W)
Time: 11:46:02
(UTC+00:00)

Gurwin Techsat 1B - Pass Details

Date: 06 July 2022
Orbit: 812 x 813 km, 98.8° (Epoch: 10 August)

Event Time Altitude Azimuth Distance (km) Brightness Sun altitude
Rises 08:31:24 0° 35° (NE) 3,345 13.1 -19.4°
Reaches altitude 10° 08:35:56 10° 71° (ENE) 2,405 11.5 -19.3°
Maximum altitude 08:37:18 11° 86° (E) 2,338 11.2 -19.2°
Drops below altitude 10° 08:38:40 10° 101° (E) 2,401 11.1 -19.2°
Enters shadow 08:41:59 - 130° (SE) 3,011 11.3 -19.0°
